Voltar ao catálogo

STARLINK-32640

AtivoComunicaçõesVLEO
NORAD 62198·PAYLOAD·🇺🇸 United States

Lançado Dec 4, 2024 de Cape Canaveral Space Force Station

Loading…

Próximas Passagens (próximas 24 horas)

TLE

AtualizadoSource: CelesTrak SupGP

Época: Sep 15, 2026, 02:50 UTC

1 62198C 24229G   26258.11854167  .00001903  00000+0  68915-4 0  2584
2 62198  43.0023 280.7321 0001285 265.4649 117.1920 15.27579408    15

Acompanhe STARLINK-32640 em tempo real com AllMySat

Download on the App Store